Location: Dzierzno
(50.6159°N, 19.2852°E)
Time: 06:56:20
(UTC+00:00)

Cosmos 304 Rocket - Pass Details

Date: 18 November 2025
Orbit: 668 x 677 km, 74.0° (Epoch: 06 December)

Event Time Altitude Azimuth Distance (km) Brightness Sun altitude
Rises 17:02:37 0° 193° (SSW) 3,003 7.3 -20.3°
Reaches altitude 10° 17:04:55 10° 190° (S) 2,095 6.4 -20.6°
Maximum altitude 17:09:34 64° 110° (ESE) 748 3.6 -21.4°
Enters shadow 17:10:23 54° 62° (ENE) 823 3.8 -21.5°
